Almeria, Spain

11:06 AM CET en Diciembre 16, 2018 (GMT +0100)
Almeria

Tiempo Historia de LEAM - Marzo, 2018

Change the Weather History Date:

Miércoles, Marzo 14, 2018

  Actual Average Record
Temperature  
Temperatura media 58 ° F -  
Temperatura máxima 66 ° F 64 ° F 71 ° F (2001)
Temperatura mínima 51 ° F 52 ° F 45 ° F (2016)
Degree Days  
Grados día de calefacción 6    
Growing Degree Days 8 (Base 50)    
Moisture  
Punto de rocío 53 ° F    
Average Humidity 80    
Maximum Humidity 100    
Minimum Humidity 47    
Precipitación  
Precipitación 0.00 pul 0.03 pul - ()
Presión al nivel del mar  
Presión al nivel del mar 29.89 pul    
Viento  
Velocidad del viento 6 mph ()    
Velocidad máxima del viento 30 mph    
Max Gust Speed 46 mph    
Visibilidad 6.1 Millas    
Eventos Niebla    
Averages and records for this station are not official NWS values.
T = Trace of Precipitation, MM = Missing Value Source: Averaged Metar Reports

Daily Weather History Graph

Daily Weather History Graph

Search for Another Location

Airport or City:

Astronomía

Mar. 14, 2018 Salida Puesta
Hora real 7:22 AM CET 7:15 PM CET
Crepúsculo civil 6:56 AM CET 7:41 PM CET
Crepúsculo náutico 6:26 AM CET 8:11 PM CET
Crepúsculo astronómico 5:56 AM CET 8:42 PM CET
Luna 5:43 AM CET (3/14) 4:25 PM CET (3/14)
Horas de luz 12h 45m
Horas de luz
11h 53m
Creciente menguante, 9% of the Moon is Illuminated
Mar 14
Creciente menguante
Mar 17
Nueva
Mar 24
Cuarto creciente
Mar 31
Luna llena
Abr 8
Cuarto menguante

Hourly Weather History & Observations

Hora (CET) Temp. Punto de rocío Humedad Presión Visibilidad Wind Dir Velocidad del viento Velocidad de ráfagas Precip Eventos Condiciones
12:00 AM 57 ° F 55 ° F 92% 30.03 pul - Sin viento Sin viento - -  
12:00 AM 57.2 ° F 55.4 ° F 94% 30.01 pul 5.6 mi Sin viento Sin viento - N/A   Desconocido
12:30 AM 57.2 ° F 55.4 ° F 94% 30.01 pul 2.8 mi Variable 1.2 mph - N/A   Neblina
1:00 AM 57 ° F 56 ° F 94% 30.01 pul - NE 2.3 mph - -  
1:00 AM 57.2 ° F 55.4 ° F 94% 30.01 pul 3.7 mi Variable 1.2 mph - N/A   Desconocido
1:30 AM 55.4 ° F 55.4 ° F 100% 30.01 pul 5.0 mi ENE 3.5 mph - N/A   Parcialmente nublado
2:00 AM 55 ° F 54 ° F 96% 30.01 pul - NNE 5.8 mph - -  
2:00 AM 55.4 ° F 53.6 ° F 94% 30.01 pul 4.3 mi NNE 5.8 mph - N/A   Parcialmente nublado
2:30 AM 55.4 ° F 53.6 ° F 94% 30.01 pul 6.2 mi NE 3.5 mph - N/A   Desconocido
3:00 AM 53.6 ° F 51.8 ° F 94% 30.01 pul 4.3 mi Variable 2.3 mph - N/A   Desconocido
3:30 AM 53.6 ° F 51.8 ° F 94% 29.98 pul 5.0 mi Variable 1.2 mph - N/A   Desconocido
4:00 AM 53 ° F 53 ° F 98% 29.99 pul - NE 4.6 mph - -  
4:00 AM 53.6 ° F 53.6 ° F 100% 29.98 pul 5.6 mi NE 3.5 mph - N/A   Nubes dispersas
4:30 AM 55.4 ° F 53.6 ° F 94% 29.95 pul 5.0 mi Variable 2.3 mph - N/A   Muy nublado
5:00 AM 53.6 ° F 51.8 ° F 94% 29.95 pul 6.2 mi Variable 1.2 mph - N/A   Nublado
5:30 AM 53.6 ° F 51.8 ° F 94% 29.95 pul 3.1 mi NE 4.6 mph - N/A   Muy nublado
6:00 AM 52 ° F 51 ° F 93% 29.97 pul - NNE 2.3 mph - -  
6:00 AM 51.8 ° F 50.0 ° F 94% 29.95 pul 3.1 mi NNE 2.3 mph - N/A   Nubes dispersas
6:16 AM 51.8 ° F 50.0 ° F 94% 29.95 pul 5.0 mi Norte 3.5 mph - N/A   Parcialmente nublado
6:30 AM 51.8 ° F 51.8 ° F 100% 29.95 pul 4.3 mi Variable 1.2 mph - N/A   Parcialmente nublado
7:00 AM 51.8 ° F 50.0 ° F 94% 29.95 pul 4.3 mi Sin viento Sin viento - N/A   Parcialmente nublado
7:30 AM 53.6 ° F 51.8 ° F 94% 29.95 pul 6.2 mi NNE 4.6 mph - N/A   Parcialmente nublado
8:00 AM 53 ° F 51 ° F 92% 29.97 pul - Norte 2.3 mph - -  
8:00 AM 53.6 ° F 51.8 ° F 94% 29.95 pul 6.2 mi Variable 2.3 mph - N/A   Parcialmente nublado
8:30 AM 53.6 ° F 51.8 ° F 94% 29.98 pul - Sin viento Sin viento - N/A   Despejado
9:00 AM 56 ° F 53 ° F 87% 29.99 pul - SSE 1.2 mph - -  
9:00 AM 55.4 ° F 51.8 ° F 88% 29.98 pul - Sin viento Sin viento - N/A   Despejado
9:30 AM 57.2 ° F 51.8 ° F 82% 29.98 pul 6.2 mi Sin viento Sin viento - N/A Niebla Parcialmente nublado
10:00 AM 58 ° F 55 ° F 86% 29.99 pul 16 mi ESE 1.2 mph - -   Parcialmente nublado
10:00 AM 59.0 ° F 53.6 ° F 82% 29.98 pul - Sin viento Sin viento - N/A   Despejado
10:30 AM 60.8 ° F 55.4 ° F 82% 29.98 pul - Variable 1.2 mph - N/A   Despejado
11:30 AM 60.8 ° F 53.6 ° F 77% 29.95 pul - Sur 4.6 mph - N/A   Despejado
12:00 PM 62 ° F 56 ° F 74% 29.95 pul - SSO 10.4 mph - -  
12:00 PM 60.8 ° F 55.4 ° F 82% 29.95 pul - SSO 9.2 mph - N/A   Despejado
1:00 PM 65 ° F 54 ° F 59% 29.91 pul 19 mi SO 19.6 mph - -   Nublado
1:00 PM 64.4 ° F 53.6 ° F 68% 29.92 pul - SO 17.3 mph - N/A   Despejado
1:30 PM 62.6 ° F 55.4 ° F 77% 29.89 pul - SO 18.4 mph - N/A   Despejado
2:00 PM 66.2 ° F 53.6 ° F 64% 29.89 pul - OSO 26.5 mph - N/A   Despejado
2:30 PM 66.2 ° F 53.6 ° F 64% 29.86 pul - OSO 28.8 mph - N/A   Despejado
3:00 PM 66 ° F 55 ° F 58% 29.85 pul - OSO 28.8 mph - -  
3:00 PM 66.2 ° F 53.6 ° F 64% 29.83 pul - OSO 27.6 mph - N/A   Despejado
3:30 PM 66.2 ° F 55.4 ° F 68% 29.83 pul - OSO 25.3 mph 36.8 mph N/A   Despejado
4:00 PM 65 ° F 56 ° F 64% 29.83 pul 25 mi SO 18.4 mph - -   Nubes dispersas
4:00 PM 64.4 ° F 55.4 ° F 73% 29.83 pul 6.2 mi SO 21.9 mph - N/A   Parcialmente nublado
4:30 PM 64.4 ° F 55.4 ° F 73% 29.80 pul 6.2 mi SO 16.1 mph - N/A   Parcialmente nublado
5:00 PM 64 ° F 56 ° F 67% 29.81 pul - SO 15.0 mph - -  
5:00 PM 62.6 ° F 55.4 ° F 77% 29.80 pul 6.2 mi SO 15.0 mph - N/A   Parcialmente nublado
5:30 PM 62.6 ° F 55.4 ° F 77% 29.80 pul 6.2 mi OSO 10.4 mph - N/A   Parcialmente nublado
6:00 PM 64 ° F 55 ° F 66% 29.78 pul - OSO 9.2 mph - -  
6:00 PM 62.6 ° F 55.4 ° F 77% 29.77 pul 6.2 mi SO 8.1 mph - N/A   Parcialmente nublado
6:30 PM 62.6 ° F 53.6 ° F 72% 29.77 pul 6.2 mi OSO 11.5 mph 24.2 mph N/A   Parcialmente nublado
7:00 PM 62.6 ° F 55.4 ° F 77% 29.77 pul - OSO 3.5 mph - N/A   Despejado
7:30 PM 64.4 ° F 51.8 ° F 64% 29.74 pul - Variable 6.9 mph - N/A   Despejado
8:00 PM 65 ° F 50 ° F 47% 29.77 pul - OSO 6.9 mph - -  
8:00 PM 66.2 ° F 50.0 ° F 56% 29.74 pul - Variable 4.6 mph 18.4 mph N/A   Despejado
8:30 PM 66.2 ° F 48.2 ° F 52% 29.74 pul - Oeste 21.9 mph 36.8 mph N/A   Despejado
9:00 PM 65 ° F 50 ° F 48% 29.75 pul - Oeste 20.7 mph - -  
9:00 PM 64.4 ° F 50.0 ° F 59% 29.74 pul - Oeste 23.0 mph - N/A   Despejado
9:30 PM 62.6 ° F 51.8 ° F 68% 29.71 pul - Oeste 18.4 mph 29.9 mph N/A   Despejado
10:00 PM 62.6 ° F 51.8 ° F 68% 29.71 pul - OSO 24.2 mph - N/A   Despejado
10:30 PM 62.6 ° F 53.6 ° F 72% 29.71 pul - OSO 24.2 mph 35.7 mph N/A   Despejado
11:00 PM 62 ° F 54 ° F 68% 29.73 pul - OSO 25.3 mph - -  
11:00 PM 62.6 ° F 53.6 ° F 72% 29.71 pul - OSO 25.3 mph - N/A   Despejado
11:30 PM 62.6 ° F 55.4 ° F 77% 29.71 pul - OSO 29.9 mph 46.0 mph N/A   Despejado